Regional Weather Roundup
Issued by NWS Wakefield, VA

Home | Current Version | Previous Version | Graphics & Text | Print | Product List | Glossary On
Versions: 1 2 3 4 5 6 7 8 9 10 11 12 13 14 15 16 17 18 19 20 21 22 23 24 25 26 27
000
ASUS41 KAKQ 020215
RWRAKQ

REGIONAL WEATHER ROUNDUP
NATIONAL WEATHER SERVICE WAKEFIELD VA
900 PM EST THU DEC 01 2016

Note: "fair" indicates few or no clouds below 12,000 feet with no
significant weather and/or obstructions to visibility. * = Denotes
station may not report precipitation (e.g., rain,snow,etc.),
thunder or fog.

VAZ042-051-052>054-056-020300-
NORTHERN VIRGINIA

CITY           SKY/WX    TMP DP  RH WIND       PRES   REMARKS
WASH NATIONAL  PTCLDY    47  29  49 NW16      29.93R
DULLES         MOCLDY    44  29  55 NW7       29.93R
FORT BELVOIR   CLEAR     47  29  50 NW17      29.91S
QUANTICO       CLEAR     47  28  47 N8        29.94R
FREDERICKSBRG* CLEAR     40  35  81 CALM      29.93R
STAFFORD*      CLEAR     39  32  76 CALM      29.97R
WARRENTON      PTCLDY    42  28  57 N6        29.93R
CULPEPER*      PTCLDY    45  31  58 CALM      29.95R
MANASSAS*      NOT AVBL
LEESBURG*      CLOUDY    46  32  57 NW6       29.95R
WINCHESTER     CLOUDY    43  28  56 W16G25    29.93R
FRONT ROYAL*   CLOUDY    43  28  56 W6        29.93R
LURAY*         CLOUDY    43  32  65 CALM      29.93S
$$

VAZ048-049-060>072-079>083-020300-
CENTRAL AND SOUTH CENTRAL VIRGINIA

CITY           SKY/WX    TMP DP  RH WIND       PRES   REMARKS
RICHMOND       CLEAR     49  31  49 NW9       29.94R
CHESTERFIELD*  FAIR      45  21  39 NW8       29.95R
PETERSBURG*    CLEAR     39  33  79 W5        29.95R
HANOVER        CLEAR     45  32  60 CALM      29.96R
TAPPAHANNOCK*  CLEAR     48  28  45 N3        29.94R
QUINTON*       FAIR      46  35  63 N8        29.92R
CHARLOTTSVILLE CLEAR     45  28  51 NW6       29.94R
GORDONSVILLE*  FAIR      44  30  58 CALM      29.94R
ORANGE*          N/A     45  30  57 CALM      29.95R
LOUISA*        CLEAR     46  34  61 NW9       29.93R
BUMPASS*       FAIR      38  34  83 CALM      29.94R
FARMVILLE*     CLEAR     46  33  60 NW3       29.94R
CREWE*         FAIR      46  33  59 NW7       29.94R
FORT PICKETT*  FAIR      45  26  47 W5        29.94R
CHASE CITY*    FAIR      46  30  55 NW6       29.96R
CLARKSVILLE*   FAIR      46  32  57 NW7G17    29.95R
SOUTH HILL*    CLEAR     47  33  57 CALM      30.00R
LAWRENCEVILLE* FAIR      45  33  64 CALM      29.94R
EMPORIA*       CLEAR     37  34  87 CALM      29.96R
$$

VAZ088>098-020300-
SOUTHEAST VIRGINIA

CITY           SKY/WX    TMP DP  RH WIND       PRES   REMARKS
NORFOLK        CLEAR     53  37  54 W5        29.90R
VIRGINIA BEACH CLEAR     49  34  56 W3        29.90R
NORFOLK NAVAL  CLEAR     53  37  54 W9        29.92R
WEST POINT*    CLEAR     46  35  67 CALM      29.94R
SALUDA*        FAIR      49  38  65 NW9       29.92R
NEWPORT NEWS   CLEAR     50  36  58 W7        29.91R
LANGLEY AFB    CLEAR     48  38  67 W9        29.90R
FORT EUSTIS    CLEAR     49  38  65 NW10      29.89R
WILLIAMSBURG*  CLEAR     48  41  76 CALM      29.93R
HR EXEC AP*    FAIR      37  34  87 CALM      29.90R
FRANKLIN*      CLEAR     40  37  86 CALM      29.93R
US460-WAKEFLD  CLEAR     43  36  76 CALM      29.93R
$$

VAZ020-022-025-037-045-020300-
WEST CENTRAL AND SOUTHWEST VIRGINIA

CITY           SKY/WX    TMP DP  RH WIND       PRES   REMARKS
STAUNTON*      CLOUDY    39  29  67 W5        29.97R
WAYNESBORO*    CLOUDY    38  28  66 CALM      29.95R
HOT SPRINGS VA CLOUDY    32  27  80 W21G32    29.86R WCI  20
LYNCHBURG      CLEAR     42  29  59 VRB5      29.97R
DANVILLE       CLEAR     45  33  63 N7        29.98R
SOUTH BOSTON*  FAIR      46  30  52 NW10      29.97R
MARTINSVILLE   CLEAR     36  32  85 CALM      30.01R
ROANOKE        PTCLDY    43  27  53 NW12      30.00R
BLACKSBURG     CLEAR     38  29  70 W8        30.00S
DUBLIN*        CLEAR     38  30  71 W6        30.00R
MARION*        MOCLDY    37  31  78 W8        30.01R
HILLSVILLE*    CLEAR     37  30  77 NW14      29.96R
RICHLANDS*     FAIR      35  28  76 W3        29.99S
WISE*          PTCLDY    34  28  80 CALM      30.01S
ABINGDON*      CLEAR     37  31  81 CALM      30.02R
$$

MDZ021>025-VAZ099-100-020300-
SOUTHERN MARYLAND AND THE DELMARVA PENINSULA

CITY           SKY/WX    TMP DP  RH WIND       PRES   REMARKS
PATUXENT RIVER PTCLDY    47  30  51 N12       29.92R
BAY BRIDGE APT CLEAR     46  32  57 NW10G21   29.92R
LEONARDTOWN    CLEAR     45  30  57 NW3       29.93R
DOVER          CLEAR     46  31  56 W13       29.89R
GEORGETOWN     CLEAR     47  31  53 NW5       29.91R
EASTON         NOT AVBL
CAMBRIDGE      CLEAR     46  32  57 NW10G16   29.91R
SALISBURY      CLEAR     43  33  68 NW5       29.90R
OCEAN CITY     CLEAR     45  32  60 NW5       29.90R
WALLOPS ISLAND CLEAR     46  36  68 N7        29.92R
ACCOMACK*      CLEAR     48  39  69 N8        29.91R
$$

NCZ012>017-030>032-020300-
NORTH CENTRAL AND EASTERN NORTH CAROLINA

CITY           SKY/WX    TMP DP  RH WIND       PRES   REMARKS
ROANOKE RAPIDS FAIR      43  36  75 NW3       29.94R
RALEIGH        CLEAR     47  34  60 CALM      29.96R
ELIZABETH CITY CLEAR     49  35  58 W6        29.91S
AHOSKIE*       CLEAR     42  38  83 CALM      29.93S
EDENTON*       CLEAR     52  38  60 CALM      29.92S
CURRITUCK*     CLEAR     53  35  51 W3        29.92R
KILL DEVIL HLS CLEAR     55  42  60 CALM      29.90R
MANTEO         CLEAR     55  42  63 N7        29.91R
CAPE HATTERAS  CLEAR     58  46  64 VRB6      29.91R
TARBORO*       NOT AVBL
GOLDSBORO      CLEAR     49  44  81 CALM      29.92R
WASHINGTON       N/A     48  41  76 CALM      29.93R
GREENVILLE     CLEAR     45  41  87 CALM      29.95S
NEW BERN       CLEAR     48  43  82 S5        29.93R
WILMINGTON     CLEAR     51  47  86 W6        29.95R
$$

VAZ048-020300-
ELSEWHERE

CITY           SKY/WX    TMP DP  RH WIND       PRES   REMARKS
HARRISBURG PA  CLOUDY    44  29  55 NW12      29.91R
BALTIMORE      MOCLDY    45  31  58 NW12      29.91S
ANNAPOLIS      CLEAR     49  32  52 NW13      29.91S
ANDREWS AFB    CLEAR     46  28  50 NW20      29.91R
PHILADELPHIA   MOCLDY    47  24  40 NW20G28   29.90R
HENDERSON NC   CLEAR     46  30  55 NW3       29.95R
GREENSBORO     CLEAR     45  32  60 NW5       29.97R
ROCKY MOUNT    CLEAR     44  40  85 CALM      29.94R
$$

VAZ100-020300-
MARINE

STATION/POSITION TIME  TEMP    WIND        PRES    WAVE   SWELL
                       AIR SEA DIR/SP/G            HT/PER HT/PER
                 (UTC) (F)     (DEG/KT/KT) (MB)    (FT/S) (FT/S)
BRANDYWINE LGT   0100   49     330/ 11/ 14   N/A
CAPE MAY NJ      0100   49 52  310/ 16/ 23 1011.2
LEWES DE         0100   50 52  310/ 15/ 18 1011.8
OCEAN-CITY-INLET 0100   50 53  340/ 11/ 14 1012.5
WACHAPREAGUE VA  0100   46 57  320/  2/  3 1011.8
THOMAS POINT MD  0100   48 51  320/ 15/ 16   N/A
GOOSES REEF MD   0110   50     360/ 16/ 19 1013.3
COVE POINT MD    0100   49     350/ 16/ 18 1013.2
SOLOMONS ISLAND  0100   49 53  340/ 11/ 14   N/A
BISHOPS HEAD MD  0100   48 53  330/  9/ 12 1012.9
PINEY POINT MD   0100           10/  8/  9   N/A
POTOMAC MD       0110   50     360/ 10/ 12 1011.9
CAMBRIDGE MD     0100   49 49  310/ 12/ 16 1011.8
LEWISETTA VA     0100   51 54  350/ 10/ 15 1012.4
RAPPAHANNOCK LGT 0100          250/  2/  2 1012.3
STINGRAY PT      0110   53     270/  4/  6 1012.4
YORK RVR RNG VA  0100   55     270/  8/  9 1011.7
YORKTOWN VA      0100   54 54  250/  8/ 10 1011.8
JAMESTOWN VA     0110   52     240/  6/  8   N/A
DOMINION TERM VA 0100   55     280/  9/ 10 1012.3
KIPTOPEKE VA     0100      55  190/  3/  4   N/A
CHES BAY BRIDGE  0100   56 55  270/  8/  9 1012.0
CAPE HENRY VA    0100   55     260/  7/  9   N/A
WILLOUBY STN VA  0100   56     290/  9/ 10 1013.1
S CRANEY ISL VA  0100   54     260/  5/  7 1012.0
CAPE HENRY BUOY  0112      57                N/A     2/ 7
1ST LANDING BUOY 0110   56                 1012.1
CAPE CHARLES BUO 0056      57                N/A     2/ 8
OFFSHORE WE BUOY 0051      57                N/A     3/ 8
64NM E OF VA BCH 0050   59 59  320/ 16/ 19 1011.2    4/ 8   3/ 8
DUCK PIER NC     0100   58 58  310/ 13/ 16 1011.8
44100 DUCK FRF   0105      58                N/A     3/ 9
OREGON INLET NC  0100   57 59  310/  6/  9 1012.2
HATTERAS NC      0100   60 65  320/  8/ 10 1011.9
DIAMOND SHLS NC  0050   66 75  340/ 14/ 17 1011.9    4/ 8   3/ 8
CAPE LOOKOUT NC  0100   62     310/  7/  8 1012.3R
$$




USA.gov is the U.S. government's official web portal to all federal, state and local government web resources and services.